Weather History for New Philadelphia, OH

Change the Weather History Date:

Tuesday, August 6, 2013

  Actual Average Record
Temperature  
Mean Temperature 68 °F 72 °F  
Max Temperature 81 °F 83 °F 92 °F (1962)
Min Temperature 55 °F 61 °F 44 °F (1994)
Degree Days  
Heating Degree Days 0 0  
Month to date heating degree days 1 0  
Since 1 June heating degree days 27 38  
Since 1 July heating degree days 5 3  
Cooling Degree Days 3 7  
Month to date cooling degree days 14 44  
Year to date cooling degree days 494 464  
Since 1 June cooling degree days 396 421  
Growing Degree Days 18 (Base 50)    
Moisture  
Dew Point 56 °F    
Average Humidity 69    
Maximum Humidity 93    
Minimum Humidity 45    
Precipitation  
Precipitation 0.00 in 0.10 in 1.17 in (2000)
Month to date precipitation 0.24 0.55  
Year to date precipitation 22.40 23.91  
Sea Level Pressure  
Sea Level Pressure 30.02 in    
Wind  
Wind Speed 2 mph (SSE)    
Max Wind Speed 9 mph    
Max Gust Speed 14 mph    
Visibility 6 miles    
Events Fog    
T = Trace of Precipitation, MM = Missing Value Source: NWS Daily Summary

Daily Weather History Graph

Daily Weather History Graph

Search for Another Location

Airport:

Trip Planner

Search our weather history database for the weather conditions in past years. The results will help you decide how hot, cold, wet, or windy it might be!

Date:

Astronomy

Aug. 06, 2013 Rise Set
Actual Time 6:27 AM EDT 8:34 PM EDT
Civil Twilight 5:57 AM EDT 9:04 PM EDT
Nautical Twilight 5:20 AM EDT 9:41 PM EDT
Astronomical Twilight 4:40 AM EDT 10:21 PM EDT
Moon 6:18 AM EDT (8/6) 8:08 PM EDT (8/6)
Length of Visible Light 15h 06m
Length of Day
14h 06m
Waning Crescent, 0% of the Moon is Illuminated
Aug 6
Waning Crescent
Aug 6
New
Aug 14
First Quarter
Aug 20
Full
Aug 28
Last Quarter

Hourly Weather History & Observations

Time (EDT) Temp. Heat Index Dew Point Humidity Pressure Visibility Wind Dir Wind Speed Gust Speed Precip Events Conditions
12:53 AM 57.0 °F - 54.0 °F 89% 30.04 in 7.0 mi Calm Calm - N/A   Clear
1:53 AM 57.9 °F - 54.0 °F 87% 30.03 in 7.0 mi Calm Calm - N/A   Mostly Cloudy
2:53 AM 59.0 °F - 55.9 °F 90% 30.02 in 8.0 mi Calm Calm - N/A   Overcast
3:53 AM 59.0 °F - 55.0 °F 87% 30.02 in 9.0 mi Calm Calm - N/A   Scattered Clouds
4:53 AM 57.9 °F - 55.0 °F 90% 30.02 in 2.5 mi Calm Calm - N/A   Clear
5:12 AM 57.2 °F - 53.6 °F 88% 30.03 in 4.0 mi Calm Calm - N/A   Clear
5:48 AM 55.4 °F - 53.6 °F 94% 30.04 in 1.5 mi Calm Calm - N/A   Clear
5:51 AM 55.4 °F - 53.6 °F 94% 30.04 in 0.8 mi Calm Calm - N/A   Clear
5:53 AM 55.9 °F - 52.0 °F 87% 30.03 in 0.5 mi Calm Calm - N/A Fog Fog
6:09 AM 55.4 °F - 53.6 °F 94% 30.03 in 1.2 mi Calm Calm - N/A   Clear
6:15 AM 55.4 °F - 53.6 °F 94% 30.03 in 2.0 mi Calm Calm - 0.01 in   Partly Cloudy
6:23 AM 55.4 °F - 53.6 °F 94% 30.03 in 3.0 mi Calm Calm - 0.01 in   Scattered Clouds
6:27 AM 55.4 °F - 53.6 °F 94% 30.03 in 2.0 mi Calm Calm - 0.01 in   Mostly Cloudy
6:44 AM 55.4 °F - 53.6 °F 94% 30.04 in 4.0 mi Calm Calm - 0.01 in   Scattered Clouds
6:53 AM 55.0 °F - 52.0 °F 89% 30.03 in 3.0 mi Calm Calm - 0.01 in   Scattered Clouds
7:53 AM 59.0 °F - 55.9 °F 90% 30.03 in 2.5 mi Calm Calm - N/A   Mostly Cloudy
8:10 AM 59.0 °F - 55.4 °F 88% 30.04 in 3.0 mi Calm Calm - N/A   Scattered Clouds
8:53 AM 63.0 °F - 57.9 °F 84% 30.04 in 7.0 mi Calm Calm - N/A   Clear
9:53 AM 69.1 °F - 60.1 °F 73% 30.04 in 10.0 mi SE 3.5 mph - N/A   Clear
10:53 AM 73.0 °F - 59.0 °F 61% 30.03 in 10.0 mi South 5.8 mph - N/A   Clear
11:53 AM 75.9 °F - 57.9 °F 54% 30.02 in 10.0 mi South 5.8 mph - N/A   Clear
12:53 PM 77.0 °F - 59.0 °F 54% 30.01 in 10.0 mi SSE 8.1 mph - N/A   Clear
1:53 PM 79.0 °F - 57.9 °F 48% 30.00 in 10.0 mi ESE 5.8 mph - N/A   Clear
2:53 PM 79.0 °F - 57.0 °F 47% 30.00 in 10.0 mi SSE 5.8 mph - N/A   Clear
3:53 PM 81.0 °F 81.3 °F 59.0 °F 47% 29.99 in 10.0 mi Variable 5.8 mph - N/A   Clear
4:53 PM 80.1 °F 80.4 °F 57.0 °F 45% 29.99 in 10.0 mi SW 3.5 mph - N/A   Clear
5:53 PM 80.1 °F 80.4 °F 57.0 °F 45% 29.99 in 10.0 mi SSW 4.6 mph - N/A   Clear
6:53 PM 79.0 °F - 60.1 °F 52% 29.98 in 10.0 mi Variable 3.5 mph - N/A   Clear
7:53 PM 77.0 °F - 60.1 °F 56% 29.97 in 10.0 mi Calm Calm - N/A   Clear
8:53 PM 69.1 °F - 61.0 °F 75% 29.98 in 10.0 mi Calm Calm - N/A   Clear
9:53 PM 66.0 °F - 60.1 °F 81% 29.99 in 10.0 mi Calm Calm - N/A   Clear
10:53 PM 64.0 °F - 60.1 °F 87% 29.98 in 10.0 mi SE 3.5 mph - N/A   Clear
11:53 PM 63.0 °F - 59.0 °F 87% 29.97 in 8.0 mi Calm Calm - N/A   Clear